Regional Weather Roundup
Issued by NWS Midland/Odessa, TX

Skip options and go directly to product.
Home | Oldest Version | Previous Version | Current Version | All | Text Only | Save Text | Print | Product List | Glossary On

Skip product version selection by date and time.   
333
ASUS44 KMAF 251110
RWRMAF
MIDLAND AREA WEATHER ROUNDUP
NATIONAL WEATHER SERVICE MIDLAND TX
600 AM CDT SAT OCT 25 2014

...IN SOUTHWEST TEXAS AND SOUTHEAST NEW MEXICO...

CITY           SKY/WX    TMP DP  RH WIND       PRES   REMARKS
ALPINE         CLEAR     58  51  77 SW8       30.30S
ANDREWS        FAIR      59  58  96 S7        30.18S
ARTESIA        NOT AVBL
BIG SPRING     CLEAR     61  58  88 SE5       30.19R
CARLSBAD       CLEAR     54  50  86 NW3       30.15S
DRYDEN           N/A     62  60  93 N7        30.15R
FORT STOCKTON  CLEAR     61  55  81 S10       30.17R
GUAD PASS      CLEAR     60  44  55 W13       30.29S
HOBBS          NOT AVBL
MARFA          CLEAR     48  46  93 N7        30.29S
MIDLAND AIRPK  CLEAR     63  58  86 S6        30.18S
MIDLAND INTL   CLEAR     58  53  84 CALM      30.16F
ODESSA         CLEAR     60  56  86 S5        30.18S
PECOS          CLEAR     54  51  91 W3        30.15R
PRESIDIO       FAIR      65  54  65 N12       30.16S
SEMINOLE       CLEAR     53  51  92 CALM      30.18S
SNYDER         CLEAR     57  54  89 SW5       30.16S
WINK           CLEAR     61  57  87 SE8       30.14S
$$
...OTHER STATIONS IN TEXAS...

CITY           SKY/WX    TMP DP  RH WIND       PRES   REMARKS
ABILENE        CLEAR     66  56  70 SW5       30.13R
AMARILLO       CLEAR     57  48  72 SW8       30.15S
AUSTIN         CLEAR     55  55 100 CALM      30.14R
BROWNSVILLE    CLEAR     65  64  97 CALM      30.12S
CORPUS CHRISTI CLEAR     63  60  90 NW5       30.13R
DALLAS FTW     CLEAR     65  58  78 S9        30.10R
DEL RIO        CLEAR     64  60  87 E8        30.13R
EL PASO        CLEAR     55  49  80 E7        30.19S
HOUSTON INT    PTCLDY    57  55  93 CALM      30.14R
LUBBOCK        CLEAR     53  48  83 W7        30.16S
SAN ANGELO     CLEAR     57  54  89 SW6       30.15S
SAN ANTONIO    CLEAR     62  57  83 NW3       30.16R
WACO           CLEAR     62  58  86 S7        30.13R
WICHITA FALLS  NOT AVBL
$$
...OTHER LOCATIONS IN NEW MEXICO...

CITY           SKY/WX    TMP DP  RH WIND       PRES   REMARKS
ALAMAGORDO     NOT AVBL
ALBUQUERQUE    CLEAR     54  36  50 CALM      30.29S
CANNON AFB     CLEAR     57  49  75 W7        30.19S
CLOVIS         CLEAR     52  45  76 SW6       30.22R
HOLLOMAN AFB   PTCLDY    53  44  73 N3        30.20S
ROSWELL        CLEAR     54  51  90 CALM      30.17S
RUIDOSO        CLEAR     50  34  53 SW8       30.37S
SANTA FE       CLEAR     47  23  38 N13       30.32F
TRUTH OR CONSE CLEAR     55  43  63 NW7       30.24S
TUCUMCARI      CLEAR     53  45  74 W8        30.15S
$$

USA.gov is the U.S. government's official web portal to all federal, state and local government web resources and services.